International Virtual Aviation Organisation

Russian Federation and Kazakhstan MCD

 

Карточка аэропорта UWOO

Внимание!
Информация на этой странице в стадии наполнения.
Если вы не увидели какой-то информации, или заметили неточность - пожалуйста сообщите нам!
Спасибо!
Команда RU-STAFF
Название аэропортаОренбург
Название аэропорта (англ.)Orenburg
Превышение387 ft. (118 m.)
Координаты51°48', 55°27'
Высота перехода700m
Эшелон переходаBy ATC
Коды ответчика2440-2443
Зона ОрВДСамара РПИ (UWWW)
Данные METARUWOO 131100Z 00000MPS CAVOK M08/M11 Q1028 R26/810352 NOSIG RMK QFE760/1014
Проноз погоды (TAF)UWOO 130744Z 1309/1409 12003MPS 9999 SCT040 TXM08/1310Z TNM14/1403Z TEMPO 1318/1405 VRB01MPS 3100 BR
NOTAMshow/hide NOTAM
AWOS   TABLE

Информация о ВПП

ВПП Длина ВПП (м.) Покрытие Курс ВПП Частота ILS
082501Асфальтобетон79109
262501Асфальтобетон259109.3

Диспетчерские позиции

Позывной Наименование органа УВД Частота
UWOO_TWRОренбург-Старт128.0
UWOO_R_APPОренбург - Круг120.400



Спутниковое изображение